When you browse on this site, cookies collect data to enhance your experience and personalize the content and advertising you see.
Visit our Privacy Policy to learn more. By continuing to use the site, you agree to this use of cookies and data.
  • In Switzerland
  • List of Countries
  • For 7 days
  • Water Temperature
  • Satellite Maps
  • Weather Map
  • Weather Widgets
  • user-avatar
    Login

    Hourly Weather Plateaux

    Today, 16 July, Tuesday

    Time Temperature Precipitation Wind Pressure Humidity
    00:00 +28°C° 0.2 mm 2 mps 721 mmHg 69%
    01:00 +27°C° 0 mm 3 mps 721 mmHg 69%
    02:00 +27°C° 0.2 mm 3 mps 721 mmHg 72%
    03:00 +26°C° 0.2 mm 2 mps 721 mmHg 74%
    04:00 +25°C° 0.2 mm 2 mps 721 mmHg 77%
    05:00 +25°C° 0 mm 2 mps 721 mmHg 77%
    06:00 +25°C° 0 mm 2 mps 721 mmHg 77%
    07:00 +25°C° 0 mm 3 mps 722 mmHg 77%
    08:00 +27°C° 0 mm 3 mps 722 mmHg 70%
    09:00 +29°C° 0 mm 2 mps 723 mmHg 64%
    10:00 +30°C° 0 mm 2 mps 723 mmHg 57%
    11:00 +31°C° 0.2 mm 2 mps 722 mmHg 54%
    12:00 +32°C° 0.2 mm 1 mps 722 mmHg 51%
    13:00 +33°C° 0.2 mm 1 mps 721 mmHg 47%
    14:00 +33°C° 0.3 mm 1 mps 721 mmHg 48%
    15:00 +33°C° 0.3 mm 1 mps 720 mmHg 48%
    16:00 +33°C° 0.3 mm 1 mps 719 mmHg 49%
    17:00 +32°C° 0 mm 1 mps 720 mmHg 52%
    18:00 +31°C° 0 mm 1 mps 720 mmHg 55%
    19:00 +30°C° 0 mm 1 mps 721 mmHg 58%
    20:00 +30°C° 0 mm 1 mps 721 mmHg 60%
    21:00 +29°C° 0 mm 1 mps 721 mmHg 63%
    22:00 +29°C° 0 mm 1 mps 722 mmHg 65%
    23:00 +28°C° 0 mm 1 mps 722 mmHg 67%

    Tomorrow, 17 July, Wednesday

    Time Temperature Precipitation Wind Pressure Humidity
    00:00 +28°C° 0 mm 1 mps 721 mmHg 69%
    01:00 +27°C° 0 mm 1 mps 721 mmHg 71%
    02:00 +27°C° 0.2 mm 1 mps 721 mmHg 73%
    03:00 +26°C° 0.2 mm 1 mps 721 mmHg 75%
    04:00 +26°C° 0.2 mm 1 mps 721 mmHg 77%
    05:00 +26°C° 0.1 mm 1 mps 721 mmHg 77%
    06:00 +26°C° 0.1 mm 1 mps 722 mmHg 76%
    07:00 +26°C° 0.1 mm 1 mps 723 mmHg 76%
    08:00 +28°C° 0 mm 1 mps 723 mmHg 68%
    09:00 +30°C° 0 mm 2 mps 723 mmHg 61%
    10:00 +32°C° 0 mm 2 mps 723 mmHg 53%
    11:00 +34°C° 0 mm 1 mps 723 mmHg 48%
    12:00 +35°C° 0 mm 1 mps 722 mmHg 43%
    13:00 +34°C° 0 mm 0 mps 721 mmHg 38%
    14:00 +36°C° 0 mm 1 mps 721 mmHg 36%
    15:00 +36°C° 0 mm 1 mps 720 mmHg 35%
    16:00 +36°C° 0 mm 1 mps 719 mmHg 34%
    17:00 +34°C° 0 mm 1 mps 719 mmHg 38%
    18:00 +33°C° 0 mm 1 mps 720 mmHg 41%
    19:00 +32°C° 0 mm 1 mps 720 mmHg 45%
    20:00 +31°C° 0.1 mm 1 mps 720 mmHg 48%
    21:00 +30°C° 0.1 mm 1 mps 721 mmHg 51%
    22:00 +30°C° 0.1 mm 1 mps 721 mmHg 54%
    23:00 +29°C° 0.6 mm 1 mps 721 mmHg 58%

    Day after tomorrow, 18 July, Thursday

    Time Temperature Precipitation Wind Pressure Humidity
    00:00 +28°C° 0.6 mm 1 mps 721 mmHg 61%
    01:00 +28°C° 0.6 mm 1 mps 720 mmHg 65%
    02:00 +27°C° 0.1 mm 1 mps 720 mmHg 67%
    03:00 +27°C° 0.1 mm 1 mps 720 mmHg 69%
    04:00 +26°C° 0.1 mm 1 mps 720 mmHg 72%
    05:00 +26°C° 0 mm 1 mps 721 mmHg 73%
    06:00 +26°C° 0 mm 2 mps 721 mmHg 73%
    07:00 +26°C° 0 mm 2 mps 722 mmHg 74%
    08:00 +28°C° 0 mm 2 mps 722 mmHg 68%
    09:00 +30°C° 0 mm 2 mps 722 mmHg 61%
    10:00 +31°C° 0 mm 2 mps 722 mmHg 54%
    11:00 +34°C° 0 mm 2 mps 722 mmHg 49%
    12:00 +35°C° 0 mm 2 mps 721 mmHg 44%
    13:00 +36°C° 0 mm 1 mps 720 mmHg 39%
    14:00 +35°C° 0 mm 1 mps 720 mmHg 40%
    15:00 +34°C° 0 mm 1 mps 719 mmHg 42%
    16:00 +34°C° 0 mm 1 mps 718 mmHg 43%
    17:00 +34°C° 0 mm 2 mps 719 mmHg 47%
    18:00 +32°C° 0 mm 2 mps 719 mmHg 51%
    19:00 +31°C° 0 mm 2 mps 720 mmHg 54%
    20:00 +30°C° 0 mm 2 mps 720 mmHg 57%
    21:00 +30°C° 0 mm 2 mps 720 mmHg 61%
    22:00 +29°C° 0 mm 3 mps 720 mmHg 64%
    23:00 +29°C° 0.4 mm 3 mps 720 mmHg 66%

    19 July, Friday

    Time Temperature Precipitation Wind Pressure Humidity
    00:00 +28°C° 0.4 mm 2 mps 720 mmHg 68%
    01:00 +28°C° 0.4 mm 2 mps 720 mmHg 71%
    02:00 +27°C° 0 mm 2 mps 720 mmHg 72%
    03:00 +27°C° 0 mm 2 mps 720 mmHg 74%
    04:00 +26°C° 0 mm 2 mps 720 mmHg 76%
    05:00 +26°C° 0.1 mm 2 mps 721 mmHg 75%
    06:00 +26°C° 0.1 mm 3 mps 721 mmHg 75%
    07:00 +26°C° 0.1 mm 3 mps 722 mmHg 74%
    08:00 +28°C° 0 mm 3 mps 722 mmHg 69%
    09:00 +29°C° 0 mm 3 mps 722 mmHg 63%
    10:00 +30°C° 0 mm 3 mps 723 mmHg 58%
    11:00 +31°C° 0.2 mm 3 mps 722 mmHg 56%
    12:00 +31°C° 0.2 mm 3 mps 721 mmHg 54%
    13:00 +33°C° 0.2 mm 3 mps 721 mmHg 53%
    14:00 +33°C° 0.3 mm 3 mps 720 mmHg 52%
    15:00 +33°C° 0.3 mm 3 mps 720 mmHg 52%
    16:00 +33°C° 0.3 mm 3 mps 719 mmHg 51%
    17:00 +31°C° 0.1 mm 2 mps 720 mmHg 55%
    18:00 +30°C° 0.1 mm 2 mps 720 mmHg 59%
    19:00 +29°C° 0.1 mm 2 mps 720 mmHg 62%
    20:00 +28°C° 0 mm 2 mps 721 mmHg 64%
    21:00 +28°C° 0 mm 3 mps 721 mmHg 65%
    22:00 +27°C° 0 mm 3 mps 722 mmHg 66%
    23:00 +27°C° 0 mm 3 mps 721 mmHg 68%

    20 July, Saturday

    Time Temperature Precipitation Wind Pressure Humidity
    00:00 +27°C° 0 mm 3 mps 721 mmHg 69%
    01:00 +26°C° 0 mm 3 mps 721 mmHg 70%
    02:00 +26°C° 0 mm 3 mps 721 mmHg 71%
    03:00 +25°C° 0 mm 2 mps 721 mmHg 73%
    04:00 +25°C° 0 mm 2 mps 721 mmHg 74%
    05:00 +25°C° 0 mm 2 mps 721 mmHg 74%
    06:00 +25°C° 0 mm 3 mps 722 mmHg 75%
    07:00 +25°C° 0 mm 3 mps 723 mmHg 75%
    08:00 +27°C° 0 mm 3 mps 723 mmHg 70%
    09:00 +28°C° 0 mm 3 mps 723 mmHg 65%
    10:00 +30°C° 0 mm 3 mps 724 mmHg 60%
    11:00 +31°C° 0.3 mm 3 mps 723 mmHg 57%
    12:00 +31°C° 0.3 mm 3 mps 722 mmHg 54%
    13:00 +33°C° 0.3 mm 3 mps 722 mmHg 51%
    14:00 +33°C° 0.3 mm 3 mps 721 mmHg 50%
    15:00 +33°C° 0.3 mm 3 mps 721 mmHg 50%
    16:00 +31°C° 0.3 mm 2 mps 720 mmHg 50%
    17:00 +30°C° 0.2 mm 2 mps 721 mmHg 55%
    18:00 +29°C° 0.2 mm 2 mps 721 mmHg 60%
    19:00 +28°C° 0.2 mm 2 mps 721 mmHg 65%
    20:00 +28°C° 0.1 mm 2 mps 721 mmHg 66%
    21:00 +27°C° 0.1 mm 2 mps 722 mmHg 67%
    22:00 +27°C° 0.1 mm 2 mps 722 mmHg 68%
    23:00 +26°C° 0 mm 3 mps 722 mmHg 70%

    21 July, Sunday

    Time Temperature Precipitation Wind Pressure Humidity
    00:00 +26°C° 0 mm 3 mps 722 mmHg 71%
    01:00 +25°C° 0 mm 3 mps 722 mmHg 73%
    02:00 +25°C° 0 mm 3 mps 722 mmHg 73%
    03:00 +25°C° 0 mm 2 mps 721 mmHg 74%
    04:00 +24°C° 0 mm 2 mps 721 mmHg 75%
    05:00 +24°C° 0 mm 2 mps 722 mmHg 75%
    06:00 +24°C° 0 mm 2 mps 722 mmHg 75%
    07:00 +25°C° 0 mm 2 mps 723 mmHg 75%
    08:00 +26°C° 0 mm 2 mps 723 mmHg 69%
    09:00 +28°C° 0 mm 2 mps 723 mmHg 63%
    10:00 +29°C° 0 mm 3 mps 724 mmHg 57%
    11:00 +31°C° 0 mm 3 mps 723 mmHg 52%
    12:00 +32°C° 0 mm 2 mps 723 mmHg 48%
    13:00 +34°C° 0 mm 2 mps 722 mmHg 44%
    14:00 +34°C° 0 mm 2 mps 721 mmHg 44%
    15:00 +33°C° 0 mm 1 mps 721 mmHg 44%
    16:00 +32°C° 0 mm 1 mps 720 mmHg 44%
    17:00 +32°C° 0 mm 1 mps 720 mmHg 47%
    18:00 +31°C° 0 mm 1 mps 720 mmHg 50%
    19:00 +30°C° 0 mm 1 mps 721 mmHg 53%
    20:00 +29°C° 0 mm 1 mps 721 mmHg 56%
    21:00 +28°C° 0 mm 1 mps 721 mmHg 60%
    22:00 +27°C° 0 mm 2 mps 722 mmHg 64%
    23:00 +27°C° 0.1 mm 2 mps 722 mmHg 66%
    Show more